Location: Goheenville
(40.9070°N, 79.3720°W)
Time: 21:51:49
(UTC-04:00)

Daily predictions for brighter satellites

Satellite Brightness Start Highest point End
(mag) Time Altitude Azimuth Time Altitude Azimuth Time Altitude Azimuth
Cosmos 2292 4.2 21:21:37 10° N 21:24:38 85° E 21:27:58 10° S
Cosmos 2266 Rocket 4.2 21:19:05 10° SSE 21:25:10 53° E 21:31:10 10° NNE
Cosmos 371 Rocket 4.2 21:22:20 10° NNW 21:26:58 48° WSW 21:31:33 10° S
Cosmos 1674 3.0 21:23:30 10° SSE 21:27:11 47° E 21:30:55 10° NNE
Cosmos 405 3.5 21:23:58 10° N 21:27:29 45° ENE 21:30:57 10° SSE
Cosmos 1553 Rocket 4.2 21:22:43 10° N 21:29:08 81° W 21:35:26 10° S
ALOS 3.6 21:24:53 10° S 21:29:17 41° W 21:33:43 10° NNW
H-2A R/B 4.2 21:30:05 10° ENE 21:31:59 12° ENE 21:33:53 10° NE
Cosmos 1680 Rocket 3.8 21:28:36 10° N 21:33:44 53° ENE 21:38:52 10° SE
H-2A R/B 4.4 21:33:42 10° S 21:36:42 16° SE 21:43:01 10° E
Cosmos 923 Rocket 4.0 21:33:07 10° NNW 21:38:21 76° ENE 21:43:33 10° SSE
Cosmos 1300 4.2 21:36:57 10° NNE 21:39:59 22° ENE 21:42:49 11° SE
Cosmos 1833 4.2 21:34:38 10° SSW 21:40:21 85° ESE 21:46:03 10° NNE
USA 229 DEB 4.0 21:33:48 10° SW 21:40:43 77° NW 21:47:46 10° NNE
USA 229 4.0 21:33:54 10° SW 21:40:49 77° NW 21:47:52 10° NNE
Tiangong 1 2.0 21:38:29 10° SSW 21:41:10 27° SSE 21:43:50 10° E
YAOGAN 6 3.9 21:38:16 10° SE 21:41:18 25° ENE 21:44:18 10° NNE
Cosmos 2333 Rocket 4.1 21:40:27 10° N 21:44:14 18° NE 21:48:00 10° E
AVUM R/B 4.1 21:42:19 10° SW 21:44:31 39° WNW 21:46:57 10° NNE
Cosmos 1939 Rocket 2.9 21:46:31 10° S 21:50:27 78° W 21:54:21 10° NNW
ATLAS CENTAUR R/B 4.2 21:49:19 10° W 21:50:39 11° WSW 21:51:57 10° WSW
H-2A R/B 2.4 21:46:19 10° S 21:50:50 76° WSW 21:55:22 10° NNW
Cosmos 773 Rocket 4.4 21:45:51 10° NNW 21:51:00 65° WSW 21:56:10 10° S
Cosmos 1707 Rocket 4.4 21:48:32 10° NNE 21:52:29 33° ENE 21:55:47 14° SE
Cosmos 1437 Rocket 3.4 21:49:09 10° NNW 21:52:53 54° W 21:56:39 10° S
Cosmos 1666 Rocket 4.5 21:52:50 12° SSE 21:56:20 31° E 22:00:14 10° NNE
COSMOS 2428 3.2 21:51:06 10° NNW 21:56:37 49° ENE 22:01:17 14° SE
MetOp-A 4.3 21:51:56 10° SSE 21:57:06 61° ENE 22:02:23 10° N
SPOT 5 2.8 21:53:23 10° SSE 21:57:56 76° ENE 22:02:46 10° N
Cosmos 2297 Rocket 4.1 21:58:41 10° E 21:58:46 10° E 21:58:51 10° E
NOSS 3-1 (A) 3.8 21:54:57 10° S 22:00:22 41° ESE 22:06:16 10° NE
PSLV R/B 3.1 22:00:36 14° SSE 22:03:08 78° ENE 22:06:11 10° N
ARGOS 3.8 21:59:31 14° SE 22:03:48 41° ENE 22:08:50 10° N
Cosmos 2219 Rocket 3.4 21:59:54 10° N 22:04:46 29° NE 22:08:52 13° ESE
Cosmos 304 Rocket 3.9 22:00:09 10° NNW 22:04:58 75° WSW 22:09:26 12° S
Nadezhda 2 Rocket 4.4 22:03:35 10° S 22:09:43 79° E 22:15:49 10° N
Cosmos 2237 4.2 22:12:31 10° NNW 22:18:16 77° ENE 22:22:30 19° SSE
Cosmos 1437 3.9 22:16:29 10° SSW 22:19:38 45° WNW 22:22:49 10° N
Cosmos 1328 4.2 22:16:42 10° SSW 22:20:36 64° W 22:24:32 10° N
Cosmos 1726 2.4 22:17:41 10° N 22:21:23 51° E 22:23:25 24° SSE
ATLAS 2AS CENTAUR R/B 3.8 22:18:20 15° SSE 22:22:56 28° ESE 22:29:20 10° NE
Envisat 3.9 22:20:10 10° S 22:25:02 46° W 22:29:55 10° NNW
CZ-4C R/B 4.1 22:24:04 22° ESE 22:25:24 29° ENE 22:28:28 10° N
USA 32 4.5 22:21:01 10° N 22:26:05 46° E 22:29:09 22° SE
Cosmos 292 Rocket 4.3 22:23:35 10° N 22:28:11 45° ENE 22:30:47 23° SE
Cosmos 2219 3.5 22:23:22 10° SSW 22:29:07 73° WNW 22:34:53 10° NNE
Landsat 7 4.5 22:27:03 22° SE 22:29:41 41° ENE 22:34:09 10° N
ERBS 4.3 22:32:03 16° E 22:32:03 16° E 22:33:06 10° ENE
Delta 2 Rocket 3.5 22:28:01 10° WSW 22:31:15 33° S 22:31:53 31° SSE
Cosmos 2237 Rocket 3.2 22:31:11 10° N 22:36:23 35° ENE 22:39:42 19° ESE
Cosmos 2333 4.2 22:30:53 10° NNW 22:36:38 80° ENE 22:40:15 24° SSE
ATLAS 3B R/B 4.1 22:32:21 10° NNW 22:38:21 28° NE 22:44:01 10° E
Cosmos 1271 Rocket 2.9 22:34:49 10° N 22:38:35 53° ENE 22:40:04 32° SE
SL-23 DEB 4.2 22:34:33 10° WNW 22:39:11 50° SW 22:40:32 31° SSE
Cosmos 2082 4.4 22:38:00 23° SSE 22:40:39 35° ESE 22:45:48 10° NE
Cosmos 1703 3.4 22:41:15 31° SSE 22:42:50 55° E 22:46:40 10° NNE
SL-14 R/B 3.4 22:40:06 17° SSW 22:43:04 77° W 22:47:06 10° N
Meteor 1-4 Rocket 2.6 22:40:23 10° N 22:44:08 69° E 22:45:29 37° SSE
Cosmos 2242 Rocket 3.6 22:40:02 10° N 22:44:30 73° E 22:46:44 29° SSE
Cosmos 1346 4.4 22:45:04 25° E 22:45:04 25° E 22:47:17 10° NE
Cosmos 1937 Rocket 3.5 22:41:23 17° S 22:45:26 64° ESE 22:50:36 10° NNE
Terra 2.5 22:43:25 26° ESE 22:45:33 41° ENE 22:50:01 10° N
Meteor 1-27 4.4 22:40:50 10° NNW 22:46:30 71° W 22:50:34 19° S
NOSS 3-1 (C) 3.6 22:41:01 10° SW 22:46:52 74° NW 22:53:25 10° NNE
Cosmos 2298 Rocket 4.2 22:41:47 10° SSW 22:47:06 76° WNW 22:52:27 10° NNE
Cosmos 2360 Rocket 3.6 22:42:45 10° NW 22:47:39 31° WSW 22:52:21 11° SSW
Iridium 2 3.8 22:47:14 36° SSE 22:48:29 55° E 22:52:15 10° NNE
NOAA 11 4.2 22:47:19 23° S 22:50:50 81° WSW 22:56:20 10° NNW
Lacrosse 4 Rocket 3.8 22:48:16 10° N 22:50:55 15° NE 22:53:24 11° E
Cosmos 1862 Rocket 4.3 22:47:13 10° N 22:51:17 37° ENE 22:52:33 30° ESE
Sich 1 3.3 22:48:46 17° SSW 22:52:10 71° W 22:56:35 10° N
CARTOSAT-1 4.0 22:51:08 32° SE 22:52:42 48° ENE 22:56:52 10° N
USA 245 3.5 22:53:37 29° SW 22:54:03 31° WSW 22:56:13 10° NW
FALCON 9 R/B 4.1 22:24:44 10° WSW 22:54:19 65° S 23:00:30 17° ESE
Cosmos 1633 Rocket 3.3 22:52:39 18° SSW 22:55:52 68° W 23:00:13 10° N
Cosmos 990 Rocket 4.0 22:53:44 27° S 22:56:21 56° ESE 23:01:23 10° NNE
DELTA 2 R/B (1) 4.5 22:51:34 10° W 22:56:26 32° SSW 22:58:07 26° S
Cosmos 2058 4.4 22:52:53 10° SW 22:56:38 34° WNW 23:00:24 10° N
DELTA 2 DEB (DPAF) 4.1 22:58:33 34° SSE 23:00:31 90° WSW 23:05:02 10° NNW
Cosmos 1626 2.5 23:01:03 43° ESE 23:01:27 45° E 23:05:03 10° NNE
OAO 2 Rocket 3.8 22:57:14 10° WSW 23:02:11 39° S 23:03:20 35° SE
COSMOS 2455 4.0 23:01:25 10° NNW 23:06:51 34° NE 23:10:13 20° ESE
SL-08 RB Rocket 4.1 23:06:50 28° SSW 23:09:00 54° W 23:13:24 10° NNW
CZ-4 R/B 4.4 23:04:21 10° N 23:09:12 57° WNW 23:13:20 13° SSW
H-2A R/B 2.1 23:08:02 34° SSE 23:10:29 83° ENE 23:15:57 10° NNW
Cosmos 2227 Rocket 2.1 23:11:30 26° S 23:14:48 72° ESE 23:20:28 10° NNE
Tiangong 1 1.2 23:14:28 10° W 23:17:13 65° W 23:17:13 65° W
Cosmos 1933 4.5 23:15:03 10° NNE 23:18:39 30° ENE 23:18:58 29° E
Cosmos 1241 Rocket 4.4 23:22:15 12° SSW 23:27:58 89° WNW 23:34:16 10° NNE
Cosmos 2333 Rocket 2.2 23:23:26 10° NNW 23:29:12 80° WSW 23:31:18 41° SSE
Cosmos 192 4.3 23:24:39 10° NNW 23:29:34 74° ENE 23:30:50 49° SE
SL-16 R/B 3.0 23:24:29 10° N 23:29:53 41° ENE 23:32:01 30° ESE
IGS 5A 3.5 23:29:10 54° SSW 23:30:01 74° WSW 23:34:13 10° NNW
SeaSat 1 3.8 23:29:32 22° E 23:31:33 29° NE 23:35:45 10° N
Cosmos 1125 Rocket 3.7 23:33:30 46° SE 23:34:28 53° ESE 23:39:38 10° NNE
Cosmos 1455 2.5 23:34:40 10° NNW 23:38:25 57° W 23:38:49 53° WSW
Nadezhda 1 Rocket 4.2 23:33:25 10° NNW 23:39:25 62° W 23:42:17 31° SSW
COSMOS 2428 4.4 23:36:07 10° NW 23:40:31 23° WSW 23:43:18 16° SW
SAR-Lupe-2 4.0 23:40:40 52° WSW 23:40:47 52° W 23:44:17 10° NNW
Cosmos 2297 Rocket 2.1 23:39:28 37° SSW 23:41:50 83° ESE 23:47:31 10° NNE
Okean 1-7 3.9 23:41:27 10° N 23:45:22 34° ENE 23:45:28 34° E
Cosmos 2219 Rocket 3.0 23:43:36 10° NW 23:48:48 40° WSW 23:50:35 31° SSW
Cosmos 1703 Rocket 3.5 23:47:59 10° N 23:52:21 69° E 23:52:36 67° ESE
Cosmos 1869 4.0 23:51:59 10° NNW 23:55:52 45° W 23:56:15 43° WSW
